Temperature
28 29 29 29 29 29 29 29 28 28 27 27 26 26 25 23 22 22 21 20 20 19 18 17 17 16 16 16 16 15 15 15 15 15 15 15 14 14 14 14 14 14 14 14
29 28 28 28 28 28 28 28 28 27 27 26 26 25 25 23 22 21 21 20 20 19 18 17 16 16 16 15 15 15 15 15 15 15 15 14 14 14 14 14 14 14 14 14
28 28 28 28 28 28 28 28 27 27 26 26 26 25 24 24 22 21 20 20 19 19 18 17 16 16 15 15 15 14 14 14 14 14 14 14 14 14 13 13 13 13 13 13
28 28 27 28 27 27 27 28 27 27 26 27 26 26 25 24 23 21 20 20 19 18 18 17 16 16 15 15 15 14 14 14 14 14 13 13 13 13 13 13 13 13 13 13
27 27 27 27 27 27 27 27 27 27 27 26 26 26 25 24 22 22 21 19 19 18 18 17 16 16 15 15 14 14 14 14 13 13 13 13 13 13 13 12 12 13 13 13
27 27 27 26 27 26 26 27 27 27 27 26 26 25 25 23 22 22 21 19 18 18 17 17 16 15 15 15 14 14 14 13 13 13 13 13 13 12 12 12 12 12 12 12
27 27 26 26 26 27 26 26 26 26 26 26 25 24 23 22 22 21 20 19 18 18 17 16 16 15 15 14 14 14 13 13 13 13 13 13 12 12 12 12 12 12 12 12
26 26 26 26 25 25 25 25 25 24 25 25 25 24 23 22 21 20 20 19 18 17 17 16 16 15 15 14 14 13 13 13 13 12 12 12 12 12 12 12 12 12 12 12
25 25 25 25 25 25 25 25 25 24 25 24 25 24 22 22 21 20 20 19 18 17 16 16 15 15 14 14 13 13 13 13 12 12 12 12 12 12 12 12 12 11 11 11
25 24 25 25 25 25 25 25 25 24 23 23 24 24 23 21 21 20 20 19 18 17 16 16 15 14 14 14 13 13 13 12 12 12 12 12 12 12 12 12 11 11 11 11
24 24 25 25 24 24 24 24 23 24 23 22 22 22 22 21 20 20 19 18 18 17 16 15 15 14 14 13 13 13 12 12 12 12 12 12 12 11 11 11 11 11 11 11
23 24 24 24 24 24 24 23 23 22 22 22 22 21 21 20 20 19 19 18 17 16 16 15 15 14 14 13 13 13 12 12 12 11 11 12 11 11 11 11 11 11 11 11
23 22 23 24 23 23 23 23 22 22 21 21 21 21 21 20 20 19 18 17 17 16 16 15 14 14 13 13 13 12 12 12 12 12 12 11 11 11 11 11 11 11 11 11
21 22 22 22 22 23 22 22 22 22 21 21 21 21 20 20 19 19 18 17 16 16 15 15 14 14 13 13 12 12 12 12 12 12 11 11 11 11 11 11 11 11 11 11
22 22 22 22 22 22 22 22 22 21 21 21 20 20 20 19 19 18 17 17 16 16 15 14 14 13 13 12 12 12 12 12 11 11 11 11 11 11 11 11 11 11 11 11
21 21 21 21 22 22 21 21 21 21 21 20 20 20 20 19 18 17 17 16 16 15 15 14 14 13 13 12 12 12 11 11 11 11 11 11 11 11 11 11 11 11 11 11
21 20 21 21 22 21 21 20 20 20 20 20 19 19 19 19 18 17 16 16 15 15 14 14 13 13 12 12 12 11 11 11 11 11 11 11 11 11 11 11 11 11 11 11
20 20 21 21 21 20 20 20 20 20 19 19 19 19 18 17 17 16 16 15 15 14 14 13 13 12 12 12 12 11 11 11 11 11 11 11 11 11 11 11 11 11 11 11
19 20 21 21 21 21 20 20 19 19 19 19 18 18 17 17 17 17 15 14 14 14 13 13 12 12 12 12 11 11 11 11 11 11 11 11 11 11 11 11 11 11 11 11
19 19 20 20 20 20 20 19 19 19 19 18 17 17 17 16 17 17 14 14 14 13 13 12 12 12 12 12 11 11 11 11 11 11 11 11 11 11 11 11 11 11 11 11
20 19 20 20 20 20 19 18 18 18 18 17 16 16 16 16 15 14 14 13 13 13 12 12 12 12 12 11 11 11 11 11 11 11 11 11 11 11 11 11 11 11 11 11
20 20 19 19 19 19 18 18 18 17 16 16 15 15 15 14 14 14 14 13 13 12 12 12 12 12 11 11 11 11 11 11 11 11 11 11 11 11 11 11 11 11 11 11
19 19 19 19 19 17 17 17 16 15 15 15 15 14 14 14 14 14 13 13 13 12 12 12 12 12 11 11 11 11 11 11 11 11 11 11 11 11 11 11 11 11 11 11
19 17 18 18 18 17 16 16 15 15 14 14 14 14 14 13 13 13 13 13 12 12 12 12 12 12 11 11 11 11 11 11 11 11 11 11 11 11 11 11 11 11 11 11
18 18 17 17 17 17 16 15 14 14 14 14 13 13 13 13 13 13 12 12 12 12 11 11 11 11 11 11 11 11 11 11 11 11 11 11 11 11 11 11 11 11 11 11
17 17 17 17 16 16 15 14 14 13 13 13 13 13 13 13 12 12 12 12 11 11 11 11 11 11 11 11 11 11 11 11 11 11 11 11 11 11 11 11 11 11 11 11
Wind_Speed
3 4 2 2 3 5 5 5 4 2 1 2 2 2 3 3 2 3 2 3 3 4 5 6 6 5 5 5 5 5 5 5 4 2 2 2 2 2 2 2 2 3 3 4
5 2 2 2 2 5 5 6 4 1 0 3 2 1 2 3 3 3 3 3 3 4 5 5 5 5 5 5 5 5 5 4 4 3 2 2 2 3 3 3 2 3 3 4
2 3 2 2 2 5 6 6 6 5 4 5 5 4 3 3 3 3 3 3 4 5 5 5 5 5 5 5 5 4 5 4 4 4 2 1 1 2 2 3 3 3 3 4
0 1 1 3 4 7 6 5 6 6 7 5 6 7 1 2 1 2 3 4 5 5 5 5 5 5 5 5 4 4 3 4 4 4 3 3 3 3 4 4 3 4 3 4
1 1 2 3 5 6 6 6 7 8 8 8 5 7 1 2 2 3 3 4 5 6 5 5 5 5 5 5 4 4 3 3 3 4 3 4 4 4 4 4 4 4 4 4
1 1 2 4 3 2 4 5 7 8 8 7 4 6 4 3 4 5 4 5 5 5 5 5 5 5 5 4 4 4 4 4 4 4 4 4 5 5 5 5 4 4 3 3
2 2 2 3 4 1 5 8 6 6 6 5 2 4 3 5 5 5 6 5 5 4 5 5 6 6 6 5 5 4 4 4 5 5 5 5 5 6 6 5 5 5 4 3
4 1 2 4 4 5 5 7 7 8 8 7 4 4 3 4 3 4 5 6 6 6 6 6 6 6 6 6 5 5 5 5 5 6 6 5 6 5 4 4 5 5 4 4
3 2 2 3 3 5 4 4 6 8 10 8 5 1 1 2 3 5 6 7 7 6 6 6 6 6 6 6 6 6 5 6 6 6 6 6 6 5 5 5 5 4 4 4
3 4 1 1 2 2 4 5 5 6 6 7 6 4 3 4 6 7 7 8 8 7 6 6 6 6 6 6 5 6 6 6 6 6 7 6 6 5 5 5 5 5 5 4
4 4 2 2 2 5 3 3 4 5 6 7 7 4 5 5 6 8 8 8 8 7 7 6 6 6 6 6 6 6 7 7 7 7 7 7 6 5 5 4 5 5 4 4
2 3 4 2 1 2 3 5 5 5 6 7 8 4 5 5 7 8 9 9 8 7 7 7 6 6 6 7 7 7 7 7 7 7 6 6 6 5 5 4 5 5 4 4
2 3 5 4 4 2 2 3 4 6 6 7 8 5 4 6 8 8 8 9 8 7 7 7 6 6 7 7 7 7 8 8 8 8 7 6 5 5 5 5 5 4 3 4
3 3 4 6 6 6 6 6 6 7 6 8 9 10 8 9 9 9 9 9 8 7 7 7 7 7 7 8 8 8 8 8 9 8 6 6 6 5 5 5 4 4 3 4
2 4 4 5 6 5 6 7 7 6 7 9 9 10 9 10 10 10 9 9 9 8 8 7 7 7 7 8 8 9 9 8 8 8 7 6 6 5 5 4 4 3 4 4
2 4 5 6 5 4 6 6 6 6 7 9 9 8 8 9 9 9 9 9 9 9 9 8 8 7 8 8 9 9 8 8 8 8 8 7 6 6 5 4 4 3 4 4
2 3 5 6 5 7 5 3 4 5 6 8 9 9 9 10 10 10 9 9 9 10 9 9 8 7 8 8 8 9 8 7 7 8 7 7 6 5 5 4 3 3 3 3
3 4 4 5 6 6 2 2 4 5 6 6 7 8 9 10 10 8 8 9 9 9 9 9 8 8 8 8 8 8 8 7 7 7 7 7 6 5 4 4 4 3 3 3
3 4 4 5 6 5 2 1 4 6 6 5 7 8 9 10 9 5 8 10 10 9 8 8 8 7 7 8 8 8 7 7 7 7 7 7 7 5 4 4 4 3 3 4
3 4 5 5 6 5 2 4 4 6 4 5 7 9 10 10 8 8 11 11 10 9 8 8 8 7 7 7 7 7 7 7 7 8 8 8 7 6 5 4 4 4 3 4
3 4 5 7 6 3 4 4 3 5 5 8 8 9 9 9 9 10 12 10 9 8 8 8 8 7 7 7 7 7 7 7 8 8 8 8 7 6 4 4 4 4 4 4
4 4 4 5 5 2 6 3 4 7 7 8 9 9 9 10 10 11 11 10 9 8 8 8 8 7 7 7 6 7 7 8 8 8 8 7 7 6 3 4 4 4 4 4
3 4 4 3 3 4 3 4 5 6 7 8 8 9 10 10 11 12 11 10 9 8 8 8 9 8 7 6 7 7 8 8 8 8 8 8 7 5 4 5 5 5 4 4
2 2 4 4 3 4 4 5 6 6 7 8 8 9 9 10 11 12 11 10 9 9 8 8 8 8 7 7 7 7 8 8 7 7 7 7 6 5 4 5 5 5 4 4
4 3 5 6 6 6 4 6 7 7 8 8 9 9 9 10 11 11 11 10 9 9 8 8 8 8 8 8 7 7 7 7 7 7 7 7 6 5 5 5 4 5 4 3
5 6 7 6 6 6 7 7 7 7 8 8 9 10 10 10 11 11 10 10 9 9 9 9 9 9 9 9 8 8 7 7 7 7 7 6 6 5 5 4 3 2 3 1
Wind_Direction
212 237 251 333 303 315 301 287 288 335 72 311 320 358 46 69 72 68 61 46 36 32 31 29 28 26 23 20 23 24 19 14 359 340 324 310 301 304 299 299 311 289 281 265
218 214 12 330 300 279 278 281 289 302 324 296 288 323 84 76 69 57 40 27 17 18 25 25 22 21 20 18 17 19 17 9 357 353 333 313 305 302 300 301 288 279 280 276
266 42 21 291 302 291 284 292 295 291 275 245 253 238 144 111 73 48 30 13 11 7 6 10 11 10 9 12 10 11 9 -0 352 341 321 313 273 271 288 298 285 282 282 272
266 53 288 289 325 310 294 316 290 269 264 275 259 283 121 130 75 22 10 0 359 358 356 358 2 359 2 4 6 9 2 359 353 335 330 313 303 302 302 299 302 296 283 274
120 10 318 319 333 318 316 313 279 267 267 277 263 278 313 109 330 336 346 349 352 353 352 354 355 355 356 358 358 358 359 359 352 338 326 305 294 293 292 293 291 289 286 278
110 88 354 339 322 317 310 283 257 245 254 271 300 291 313 19 341 340 345 346 347 348 353 355 359 1 357 355 351 350 353 350 337 327 323 310 298 292 294 294 292 286 288 283
195 134 76 349 308 272 308 300 278 265 269 290 345 288 338 32 11 353 348 347 341 344 351 355 358 358 354 350 346 344 342 334 329 325 318 307 296 285 279 283 285 285 282 280
278 240 55 14 340 316 318 308 306 300 301 304 288 285 35 52 27 5 357 355 353 352 348 348 350 352 350 346 343 337 330 325 324 321 316 305 293 286 287 286 289 283 282 284
315 316 77 32 6 318 314 319 319 291 288 281 278 263 131 77 28 11 5 1 355 348 343 341 342 343 343 341 341 335 328 321 315 313 312 306 299 293 289 281 278 283 277 273
317 289 324 2 244 67 343 325 297 295 300 294 285 295 339 360 359 1 359 356 352 344 338 337 335 338 339 337 336 332 324 318 311 311 312 311 300 290 285 282 286 284 276 272
319 282 279 264 324 338 335 328 313 297 298 296 298 326 24 6 352 341 342 347 344 338 332 327 330 338 338 337 335 335 330 323 316 311 311 310 297 290 287 288 288 283 279 272
339 292 287 283 56 350 338 334 319 304 302 291 293 313 54 15 346 334 335 342 340 334 329 325 331 334 336 338 338 336 333 331 322 313 306 304 302 297 294 290 289 285 281 276
322 276 275 221 184 175 314 316 306 297 292 291 290 304 44 349 341 341 339 338 335 331 326 325 328 329 331 332 333 332 331 332 326 318 309 309 311 305 298 296 292 289 288 288
292 278 286 302 317 319 307 310 303 290 293 298 298 309 326 337 338 337 336 333 330 326 324 324 327 328 330 329 328 327 327 331 328 322 318 317 314 306 298 298 297 297 297 292
281 267 274 281 290 292 299 303 306 295 292 294 306 312 326 335 330 329 331 333 329 326 325 325 326 329 329 328 326 327 329 332 328 323 323 321 319 311 303 298 299 305 307 299
277 274 274 269 268 280 292 300 298 295 297 296 302 310 336 332 328 330 331 330 326 324 324 323 322 325 326 326 324 325 326 327 327 324 322 324 320 316 311 302 301 305 305 302
243 256 272 276 284 277 273 296 309 313 320 314 313 325 335 331 333 332 329 327 327 326 327 323 320 320 323 323 321 320 321 323 322 320 319 321 313 309 310 304 305 301 299 297
251 262 269 281 277 271 55 38 328 313 320 328 321 329 334 333 325 320 329 332 330 327 325 326 323 320 320 320 316 315 320 322 320 319 320 324 316 308 311 314 310 305 304 300
237 255 273 275 281 278 237 334 321 308 312 351 340 336 336 333 316 322 351 341 329 327 324 322 320 315 316 317 316 316 321 326 326 324 324 325 323 315 312 313 308 302 304 302
190 238 260 270 283 287 11 23 337 289 268 27 350 336 334 328 320 338 343 331 328 329 327 325 322 316 313 318 317 316 319 323 322 320 320 322 321 312 304 303 303 305 302 293
234 238 255 270 273 276 36 13 307 289 343 356 338 331 325 323 320 321 324 325 326 328 327 325 322 317 317 320 315 312 314 319 318 318 319 320 318 308 294 296 301 301 300 301
284 278 269 274 272 311 41 3 333 337 340 333 329 326 323 321 319 319 320 323 325 326 327 326 322 317 317 317 312 311 314 318 318 317 315 317 316 307 301 294 293 292 293 290
267 306 308 300 325 20 5 340 340 333 326 328 326 325 322 319 320 321 322 324 324 321 323 322 320 317 315 314 311 308 312 315 313 313 315 316 313 305 297 289 286 284 285 291
241 297 277 277 282 315 320 328 329 327 325 326 325 321 320 318 320 323 325 324 322 322 320 317 316 315 314 314 311 306 307 313 313 314 313 311 306 301 299 291 292 295 301 301
284 265 267 265 284 295 309 327 328 329 327 326 326 324 322 319 321 324 325 325 322 321 318 315 313 312 310 311 309 309 309 309 309 308 309 308 306 304 298 294 298 294 297 306
254 257 267 285 308 302 307 315 321 320 321 322 322 323 323 321 321 323 323 322 319 317 316 313 311 311 311 312 313 313 310 305 300 300 303 305 305 302 294 292 294 300 280 250
Height
1510 1507 1504 1504 1504 1502 1503 1503 1505 1505 1506 1507 1508 1510 1512 1516 1517 1518 1518 1519 1519 1519 1519 1518 1516 1515 1513 1511 1510 1508 1507 1506 1504 1504 1503 1503 1502 1501 1501 1500 1499 1498 1497 1497
1506 1507 1506 1506 1505 1505 1503 1504 1504 1505 1506 1508 1508 1509 1512 1515 1517 1519 1519 1519 1519 1519 1518 1517 1516 1515 1513 1511 1509 1508 1506 1505 1504 1503 1501 1501 1500 1499 1499 1498 1497 1496 1495 1494
1506 1508 1508 1507 1506 1506 1503 1504 1505 1507 1506 1505 1507 1508 1510 1514 1517 1519 1519 1520 1519 1518 1518 1517 1516 1514 1512 1510 1509 1507 1505 1504 1503 1502 1501 1500 1498 1497 1497 1496 1494 1493 1492 1491
1506 1508 1508 1506 1507 1506 1505 1502 1504 1505 1506 1502 1505 1509 1505 1510 1514 1517 1518 1519 1518 1518 1517 1516 1515 1513 1512 1510 1508 1507 1505 1503 1502 1500 1499 1498 1497 1496 1495 1494 1492 1491 1490 1489
1509 1509 1508 1509 1509 1507 1506 1503 1502 1501 1501 1502 1500 1507 1503 1508 1513 1515 1517 1518 1518 1518 1517 1516 1515 1513 1511 1509 1508 1506 1504 1502 1500 1498 1497 1495 1495 1493 1492 1490 1489 1488 1487 1486
1509 1511 1510 1510 1509 1509 1506 1503 1500 1499 1497 1508 1503 1508 1508 1508 1513 1514 1516 1517 1518 1517 1516 1515 1514 1512 1510 1508 1507 1505 1502 1500 1498 1496 1495 1493 1491 1490 1489 1487 1486 1485 1484 1483
1510 1509 1511 1512 1508 1506 1506 1506 1507 1507 1506 1506 1502 1508 1511 1512 1514 1515 1516 1517 1517 1516 1515 1514 1512 1511 1509 1507 1505 1503 1501 1498 1496 1494 1492 1490 1488 1487 1485 1484 1483 1482 1482 1481
1513 1513 1512 1512 1512 1512 1509 1509 1517 1521 1515 1506 1502 1508 1510 1513 1516 1517 1517 1517 1516 1515 1514 1513 1512 1510 1508 1506 1504 1501 1499 1496 1494 1492 1490 1487 1486 1485 1483 1481 1480 1479 1478 1478
1515 1516 1513 1514 1514 1511 1509 1508 1509 1512 1506 1510 1505 1506 1509 1513 1515 1516 1516 1516 1516 1515 1514 1513 1511 1509 1507 1505 1502 1500 1498 1495 1493 1490 1487 1485 1483 1481 1480 1478 1477 1476 1475 1475
1516 1521 1513 1514 1512 1513 1511 1511 1509 1512 1522 1520 1509 1507 1510 1512 1514 1515 1515 1515 1515 1514 1513 1512 1510 1508 1506 1504 1501 1498 1496 1493 1491 1488 1485 1483 1481 1479 1477 1476 1474 1473 1472 1472
1517 1521 1516 1514 1515 1514 1514 1514 1514 1511 1513 1521 1520 1516 1511 1514 1515 1516 1515 1515 1515 1513 1512 1511 1509 1507 1505 1502 1500 1497 1494 1491 1488 1485 1483 1480 1478 1476 1474 1473 1472 1471 1470 1469
1521 1519 1518 1515 1515 1516 1515 1516 1516 1523 1521 1517 1519 1520 1512 1515 1516 1516 1515 1515 1514 1513 1511 1510 1508 1505 1503 1501 1498 1495 1492 1490 1486 1483 1481 1478 1475 1474 1473 1471 1470 1469 1468 1467
1522 1523 1523 1517 1519 1517 1517 1516 1517 1519 1520 1519 1522 1520 1513 1515 1516 1516 1515 1515 1513 1512 1510 1508 1506 1504 1502 1499 1497 1494 1491 1488 1484 1481 1479 1476 1474 1472 1471 1469 1468 1467 1466 1465
1525 1522 1524 1527 1523 1518 1518 1517 1516 1518 1519 1519 1517 1515 1513 1514 1515 1515 1515 1513 1512 1510 1509 1506 1504 1502 1500 1498 1495 1492 1489 1486 1482 1479 1476 1474 1472 1471 1469 1468 1466 1465 1464 1463
1525 1522 1521 1520 1518 1518 1519 1518 1517 1517 1518 1519 1516 1516 1515 1515 1516 1515 1514 1512 1511 1509 1507 1505 1503 1501 1498 1496 1493 1490 1487 1483 1480 1477 1475 1473 1471 1469 1468 1466 1465 1464 1463 1462
1526 1524 1522 1521 1518 1518 1519 1518 1517 1517 1516 1516 1515 1515 1515 1516 1516 1515 1513 1511 1509 1507 1505 1503 1501 1499 1497 1494 1491 1488 1485 1482 1479 1476 1473 1471 1469 1467 1466 1465 1463 1462 1461 1460
1523 1525 1524 1520 1516 1518 1519 1518 1518 1518 1517 1517 1517 1516 1515 1515 1515 1514 1512 1510 1508 1506 1503 1501 1499 1497 1495 1492 1489 1486 1483 1480 1477 1475 1472 1469 1467 1466 1464 1463 1462 1461 1460 1459
1525 1524 1521 1518 1520 1524 1520 1517 1518 1518 1518 1517 1517 1517 1517 1516 1516 1514 1512 1509 1507 1505 1502 1500 1497 1495 1493 1490 1487 1485 1482 1479 1476 1473 1471 1468 1466 1464 1463 1462 1461 1460 1459 1457
1526 1524 1520 1518 1518 1516 1516 1517 1518 1519 1517 1518 1518 1518 1517 1516 1513 1511 1510 1509 1507 1504 1502 1499 1496 1494 1491 1488 1486 1483 1480 1478 1475 1472 1470 1468 1465 1463 1462 1461 1459 1459 1457 1456
1526 1524 1520 1518 1522 1522 1518 1518 1519 1520 1516 1519 1520 1519 1517 1515 1510 1509 1510 1508 1505 1503 1500 1497 1494 1492 1489 1487 1484 1482 1479 1477 1474 1472 1469 1467 1464 1462 1460 1459 1458 1458 1456 1455
1521 1521 1520 1519 1520 1514 1518 1520 1520 1521 1521 1521 1520 1520 1518 1516 1515 1513 1510 1507 1504 1501 1498 1496 1493 1491 1488 1485 1483 1480 1478 1476 1473 1470 1468 1465 1463 1461 1459 1458 1457 1457 1456 1455
1520 1518 1519 1519 1520 1520 1522 1521 1522 1523 1523 1522 1521 1520 1518 1516 1513 1511 1508 1505 1502 1499 1497 1494 1491 1489 1486 1484 1481 1479 1477 1475 1472 1469 1467 1464 1462 1460 1459 1457 1456 1456 1455 1454
1521 1521 1518 1519 1521 1523 1524 1524 1525 1524 1523 1522 1521 1519 1517 1514 1512 1509 1506 1503 1501 1498 1495 1492 1490 1487 1485 1482 1480 1478 1475 1473 1471 1468 1465 1463 1461 1459 1458 1457 1456 1455 1454 1453
1521 1525 1523 1521 1520 1523 1524 1524 1524 1524 1523 1521 1520 1518 1515 1513 1510 1507 1504 1502 1499 1496 1493 1490 1488 1486 1483 1480 1478 1476 1473 1471 1469 1467 1464 1462 1460 1458 1456 1455 1455 1454 1452 1451
1522 1523 1522 1521 1521 1522 1522 1523 1523 1522 1521 1519 1518 1516 1514 1511 1508 1506 1503 1500 1497 1494 1491 1488 1486 1483 1481 1478 1476 1474 1471 1469 1467 1465 1463 1460 1459 1457 1455 1454 1453 1452 1450 1450
1522 1522 1522 1519 1522 1522 1522 1522 1521 1520 1519 1518 1516 1514 1512 1509 1506 1503 1500 1498 1495 1492 1489 1486 1484 1481 1478 1476 1474 1472 1470 1467 1465 1463 1461 1459 1457 1456 1454 1452 1451 1450 1448 1447